Погода в Талламоре

Ирландия     53°16′15″N   7°29′34″W
темп.,
°C
ветер,
м/с
пор.,
м/с
влажн.,
%
обл.,
%
осадки,
мм/ч
давл.,
гПа
погр.,
м
10 мая, пн
пн1001:00+10ю597459 0.0 986872
04:00+10ююв487489 0.0 986739
07:00+9ююв4778100 0.0 986954
10:00+11ю4777100 0.1 987899
13:00+12ю467684 0.8 9871177
16:00+13юз468999 2.3 988850
19:00+10зюз61293100 4.6 991963
22:00+7юз5129197 0.2 995895
11 мая, вт
вт1101:00+6ю41283100 0.2 997731
04:00+6ю51282100 0.0 999770
07:00+6ююв411795 0.0 1000746
10:00+10ююв58574 0.0 10011394
13:00+13ююв574884 0.0 10012187
16:00+13юв465936 0.5 10011569
19:00+10ююв35855 1.6 1002323
22:00+5ююв229340 0.1 100318
12 мая, ср
ср1201:00+4юв119618 0.1 100414
04:00+3вюв229595 0.0 100315
07:00+4в2496100 0.0 1004121
10:00+9в238698 0.8 1005420
13:00+9вюв228592 1.3 1006373
16:00+10юв228077 0.4 1006604
19:00+8юв359363 0.8 1007202
22:00+6юв119933 0.0 100813
13 мая, чт
чт1301:00+5юз119816 0.0 100911
04:00+3з229935 0.0 100924
07:00+4зсз129835 0.0 101063
10:00+10с128382 0.0 1010600
13:00+13с126977 0.5 1010994
16:00+12св3480100 1.2 1009741
19:00+11всв4581100 1.9 1011702
22:00+8всв3793100 0.0 1012333
14 мая, пт
пт1401:00+7св1599100 0.8 1012234
04:00+8с2798100 0.3 1013280
07:00+8ссв279887 0.4 1013360
10:00+11всв3578100 0.0 1014865
13:00+14в345961 0.1 10141519
16:00+15в335530 0.1 10131571
19:00+13юв347969 0.4 1012324
22:00+8ю2796100 0.4 1013162